Theta_e
330 329 325 325 332 333 332 330 329 330 329 328 327 328 329 332 334 343 335 334 332 338 337 336 338 335 333 331 331 330 330 330 331 331 331 331 331 330 334 331 329 330 330 330 329 328 328 328 323
330 329 326 328 334 335 330 328 331 331 330 328 328 329 329 336 336 335 336 335 333 338 337 337 337 335 333 331 331 330 330 331 331 330 330 329 331 329 331 330 328 330 329 329 329 328 328 327 322
331 330 327 332 334 331 331 329 329 331 330 331 331 330 331 336 333 335 336 335 334 336 338 337 336 334 333 331 329 329 329 329 330 331 330 329 330 330 328 329 328 329 329 328 328 328 327 324 320
331 331 328 331 335 328 328 328 330 330 330 330 330 332 333 334 334 335 335 335 332 334 338 335 336 334 333 331 330 329 328 329 330 329 329 329 329 329 328 329 328 328 328 327 327 327 326 321 320
332 333 336 335 331 328 328 329 330 331 330 329 330 329 336 334 335 336 335 335 331 333 338 335 336 334 333 331 330 331 329 329 329 328 328 327 327 328 327 328 328 327 327 327 327 327 323 320 319
334 334 338 339 331 327 329 329 330 330 329 329 330 328 336 334 334 335 335 334 332 332 337 335 335 334 334 331 329 331 331 329 328 327 326 327 327 328 328 327 328 327 327 327 327 325 321 319 319
335 337 340 338 336 329 325 328 330 330 329 330 330 330 334 334 334 333 334 332 331 331 336 334 336 334 334 331 328 328 331 331 328 327 326 326 326 327 327 327 326 327 326 325 324 321 319 319 319
333 334 338 337 337 335 325 327 325 327 330 328 329 331 333 334 334 333 332 331 329 330 335 334 336 334 334 332 330 329 331 332 329 328 326 326 325 325 326 326 326 326 327 326 323 320 318 318 318
331 336 336 335 336 335 325 325 324 323 324 329 330 331 333 334 334 333 331 331 329 329 332 335 335 334 334 333 331 329 329 331 328 327 326 326 325 324 325 326 325 325 326 326 324 321 319 317 317
334 336 335 332 333 334 327 327 327 326 325 325 327 332 333 334 334 333 331 331 329 328 329 333 334 334 333 333 331 330 329 328 327 326 326 325 326 324 324 325 325 325 325 323 324 323 319 319 319
330 334 331 332 333 332 331 329 328 330 330 327 327 331 332 333 334 333 332 330 329 327 328 329 333 333 333 332 331 330 329 328 327 326 325 325 327 326 324 326 325 325 325 322 321 320 319 322 323
328 326 326 328 329 329 329 329 329 330 330 328 328 327 331 331 333 333 332 330 329 327 328 327 330 333 332 332 331 330 330 327 328 327 326 326 327 326 325 324 323 324 322 322 321 320 320 321 322
325 327 326 323 326 329 328 329 329 328 327 326 326 326 326 328 331 332 333 332 330 328 326 328 327 331 333 332 331 331 330 329 328 327 328 327 327 326 324 324 323 322 322 322 323 322 321 321 321
326 327 326 321 324 326 327 326 326 326 324 324 325 324 325 324 325 327 330 332 332 330 327 327 328 328 331 331 332 331 330 329 328 327 327 328 327 326 325 325 324 322 322 321 322 321 321 321 321
326 329 327 325 325 325 325 326 326 323 322 322 323 323 324 324 326 326 326 329 331 332 330 327 329 328 328 331 331 330 330 329 327 327 327 326 326 326 325 325 325 323 321 320 320 320 320 321 321
327 327 328 321 321 325 325 324 320 320 320 321 321 322 322 323 325 325 325 327 329 332 332 329 328 329 328 328 330 330 329 328 328 327 327 326 325 325 324 324 324 324 322 321 320 320 320 321 321
329 328 327 325 321 323 328 329 324 321 321 321 321 322 321 321 323 325 325 324 326 330 333 331 328 329 329 327 328 329 329 328 327 326 327 326 325 322 323 323 323 323 322 321 320 319 319 319 320
326 327 324 324 323 324 325 326 325 323 322 322 322 322 322 322 322 324 326 326 325 326 331 332 331 329 329 328 328 329 328 328 327 326 327 326 325 323 323 323 322 321 321 320 319 319 319 320 320
323 323 323 322 321 324 324 323 322 320 320 321 320 321 322 322 323 325 325 325 324 324 327 331 332 331 329 329 328 327 328 327 327 326 325 327 326 324 323 322 322 323 322 320 319 318 319 320 321
325 324 323 321 321 322 320 320 319 319 319 319 320 320 320 320 320 322 324 324 325 323 324 329 332 332 331 329 328 328 327 327 327 327 325 326 327 326 324 322 323 324 324 323 322 320 319 320 321
324 324 324 322 319 320 319 320 318 318 318 318 319 319 319 320 320 320 321 323 323 325 322 326 329 332 332 330 329 329 328 328 326 325 324 323 326 327 326 324 323 324 326 325 324 323 321 322 323
323 318 319 321 322 321 318 320 318 317 316 316 316 315 316 317 319 319 319 321 322 323 324 324 328 330 331 331 330 329 329 328 327 325 324 324 323 327 327 326 325 323 325 326 325 324 323 323 323
320 319 320 321 320 319 319 321 317 316 316 316 316 315 315 315 315 317 317 321 323 324 323 324 325 329 330 331 331 330 329 329 328 327 326 325 325 325 326 327 326 325 324 325 325 325 325 323 323
319 321 320 321 322 324 320 319 317 315 316 320 318 317 319 319 318 319 320 320 320 321 323 325 324 327 330 331 331 331 330 330 329 328 327 327 326 327 326 326 326 326 325 324 324 325 325 325 324
321 321 319 323 322 321 317 319 317 317 318 318 318 318 318 318 318 316 310 310 311 312 315 322 325 325 328 331 331 331 331 331 330 329 328 327 327 326 326 326 327 326 325 324 324 324 324 325 324
320 320 320 321 323 320 316 322 320 319 318 319 320 319 318 313 309 308 309 310 310 310 310 314 319 324 325 329 331 331 331 331 331 330 329 328 327 326 326 325 325 326 326 325 324 324 324 325 325
319 321 317 321 316 322 322 321 319 318 319 318 318 318 315 314 312 312 312 311 311 311 310 309 311 319 322 324 328 330 331 331 330 330 330 329 328 327 326 326 325 325 325 325 324 325 325 325 326
316 317 321 320 321 317 314 313 315 318 319 318 317 316 312 311 313 313 312 313 314 313 312 311 310 309 315 319 322 325 330 331 331 330 330 329 329 328 327 327 326 326 325 325 325 325 326 326 326
317 320 319 318 317 319 318 315 314 313 316 315 314 313 311 313 312 313 312 314 314 315 314 313 311 309 308 312 317 319 324 330 331 330 330 329 329 329 329 329 329 327 327 326 326 326 326 326 326
315 316 319 318 319 317 318 319 313 312 315 314 313 314 314 315 313 312 312 314 315 315 315 315 314 310 307 306 310 314 319 324 329 330 329 329 329 329 329 329 329 329 327 327 326 326 325 325 325
Wind_Speed
25 20 19 7 1 1 5 3 3 4 6 5 7 4 4 11 6 4 14 11 21 19 18 19 16 14 12 16 17 15 17 16 17 15 16 15 15 15 15 17 16 17 17 17 17 18 18 19 21
25 20 9 4 2 2 5 2 10 8 6 7 1 3 2 6 8 6 12 13 18 18 17 18 17 14 14 14 15 15 16 16 16 15 15 15 15 14 13 13 15 15 16 16 16 16 17 17 19
25 13 2 3 2 6 5 6 8 6 4 1 1 3 5 4 9 14 14 19 18 16 18 16 17 16 14 13 14 15 15 14 15 15 14 14 14 13 12 12 12 14 14 14 14 15 15 16 19
12 5 3 2 7 6 7 6 10 6 2 1 4 6 6 11 4 11 20 20 18 17 18 15 17 16 14 13 14 15 14 15 13 12 14 13 12 12 12 11 11 11 13 12 13 13 13 15 17
14 4 4 3 7 6 6 4 6 5 5 5 1 4 5 7 10 16 18 19 20 19 14 16 18 17 15 14 15 14 13 14 13 12 13 12 12 12 12 11 10 10 11 11 11 11 12 13 14
4 1 4 3 6 6 5 3 2 6 3 5 2 2 4 7 12 14 16 16 16 18 15 19 17 17 15 14 16 14 13 13 12 11 12 12 11 11 11 10 10 9 8 10 10 10 11 11 12
5 4 7 7 3 6 5 2 4 3 8 4 2 2 5 8 14 16 18 14 15 14 14 18 20 17 16 15 16 13 12 12 11 9 8 11 11 11 11 10 9 9 9 7 9 9 9 10 10
4 2 7 7 5 5 5 4 6 5 2 5 3 1 5 13 14 17 16 16 14 16 15 16 17 19 17 17 16 13 12 15 13 7 6 9 10 10 11 10 9 9 9 7 8 7 7 7 8
4 3 6 9 7 4 7 4 4 4 4 1 4 4 10 18 18 17 16 16 16 15 17 17 18 17 18 18 18 16 14 15 14 12 9 9 9 10 12 11 10 9 9 10 7 7 6 6 6
4 5 10 11 7 3 9 4 5 4 5 4 5 10 11 16 19 20 20 19 19 20 20 19 21 20 19 18 18 19 18 17 15 14 14 12 12 7 10 13 13 11 10 10 10 8 6 5 3
5 7 12 11 9 4 6 5 4 4 7 7 5 12 14 15 16 18 20 23 26 23 22 23 21 23 23 20 19 18 18 19 17 17 16 16 12 13 14 15 16 15 13 12 10 9 8 5 5
11 11 11 12 7 5 4 7 7 7 7 9 6 5 14 11 16 17 20 24 26 27 27 27 26 24 26 24 22 21 21 19 20 19 16 17 16 17 17 14 16 17 15 12 11 10 8 8 11
11 8 13 9 6 3 7 8 8 11 8 9 8 9 7 10 17 21 23 22 25 30 30 31 30 29 28 30 25 24 24 22 21 22 21 20 21 18 16 16 13 15 13 14 14 12 12 12 10
2 5 14 12 6 4 7 10 8 12 9 10 12 12 10 9 11 19 22 23 27 29 32 33 35 33 31 30 29 28 26 24 23 22 25 25 22 21 19 20 18 18 17 16 17 15 14 12 12
2 6 8 9 7 7 6 11 12 19 12 12 13 10 10 10 17 19 21 25 25 28 27 32 35 35 36 33 33 29 28 26 28 27 26 27 26 23 23 22 21 21 19 18 17 16 15 14 13
2 6 7 5 13 8 7 9 9 15 13 17 14 13 9 10 18 24 22 19 24 28 29 31 32 35 37 37 35 34 31 30 29 29 27 29 30 27 25 25 25 23 22 22 21 20 19 18 16
7 5 12 10 8 10 11 4 8 7 8 8 8 8 8 8 10 13 14 19 22 27 30 31 33 36 37 35 34 33 33 33 33 31 30 31 32 33 29 28 27 25 24 24 25 22 21 19 18
6 9 9 11 9 12 12 12 10 12 15 10 9 10 8 9 9 16 18 17 19 21 26 30 33 35 35 33 33 33 34 34 34 35 34 34 35 34 34 30 28 27 28 27 25 25 23 22 19
10 12 12 9 14 1 7 11 11 9 11 13 11 12 11 13 16 25 23 23 23 23 25 30 32 34 34 33 31 32 35 36 37 39 40 35 35 37 36 35 32 30 32 32 29 27 26 25 21
13 12 13 11 5 1 8 19 17 18 18 18 15 13 12 10 10 16 21 21 26 29 30 31 35 37 38 35 37 34 31 33 38 38 39 39 35 37 39 39 37 35 34 32 31 30 28 26 25
16 14 9 10 12 6 8 18 16 19 21 20 17 17 17 19 14 11 15 20 19 30 33 36 36 36 41 40 34 30 27 26 29 35 38 42 41 40 41 40 39 37 36 36 36 34 33 26 27
12 8 12 14 5 4 4 8 14 13 13 10 11 10 12 14 18 18 14 20 26 22 32 35 38 38 38 40 37 37 36 32 39 37 36 38 46 44 42 43 42 41 40 36 39 38 38 29 27
8 6 8 8 5 9 11 8 6 5 9 11 8 10 10 11 9 8 9 14 13 20 26 28 37 39 40 40 41 38 37 37 32 29 32 38 40 45 44 45 44 43 40 40 37 37 39 40 29
5 4 3 3 2 6 7 9 7 7 8 2 7 7 4 3 4 3 9 13 14 15 16 24 29 35 40 41 42 41 38 38 32 33 33 34 37 41 46 48 46 45 44 42 43 42 41 39 38
9 7 2 4 4 7 6 8 18 8 12 8 9 7 6 7 5 6 9 11 15 18 19 19 25 29 36 41 41 43 42 40 38 34 35 32 32 35 43 47 44 45 47 42 40 41 40 42 39
13 9 4 6 5 2 9 9 8 6 11 7 4 4 6 7 7 8 6 5 10 15 17 18 20 28 30 35 38 40 42 40 37 37 34 35 35 38 37 42 44 45 43 43 41 39 42 39 41
10 14 13 5 3 1 4 7 10 14 7 9 8 5 7 6 5 4 3 5 9 15 15 15 17 20 26 31 34 36 40 40 39 37 37 36 35 36 37 40 45 45 44 43 42 40 40 40 40
8 6 4 4 5 4 6 6 10 5 11 11 8 8 8 6 6 6 5 8 16 15 17 17 16 19 25 31 34 34 35 39 38 37 36 36 35 35 35 40 43 45 43 42 41 40 39 37 39
12 7 6 6 5 4 2 5 7 13 2 5 8 8 7 1 5 5 4 9 14 20 18 19 21 20 19 24 33 33 34 34 36 35 36 35 35 33 36 38 37 38 40 42 41 40 38 38 36
16 18 12 4 5 4 2 8 6 6 8 8 7 5 2 4 6 7 8 15 17 17 21 23 24 21 22 21 22 28 32 31 32 35 36 34 35 32 35 35 35 37 40 40 41 40 38 37 38
Wind_Direction
339 337 323 299 340 145 79 66 78 86 74 41 44 26 20 39 15 115 145 127 137 139 150 144 146 137 128 122 117 117 112 111 109 106 109 114 106 104 101 99 98 97 96 93 91 92 93 91 94
334 326 309 270 243 117 81 88 78 62 72 28 345 299 23 84 79 120 117 139 143 146 145 154 150 143 136 130 130 125 122 118 114 113 112 119 109 111 103 100 91 99 98 96 96 95 96 96 97
325 306 282 322 296 29 95 86 104 87 63 75 126 20 5 70 86 145 145 147 144 145 152 160 154 149 142 136 135 132 128 125 121 117 115 118 121 115 122 109 104 103 104 100 98 99 100 101 103
319 293 245 260 76 58 46 78 115 132 137 324 12 88 82 28 86 134 146 148 145 147 161 164 159 155 151 143 145 137 129 124 125 126 121 122 131 120 115 120 115 108 109 106 106 107 106 107 108
311 259 274 266 79 79 59 45 148 157 129 129 2 99 94 71 99 133 150 152 151 150 161 165 165 165 159 152 154 151 148 139 142 136 131 128 134 133 128 131 128 122 118 116 117 116 114 112 110
302 225 282 300 102 102 67 7 245 139 65 115 207 134 92 126 125 143 152 156 155 156 159 169 170 171 166 159 157 159 162 152 148 151 140 137 139 147 140 145 141 132 125 128 129 125 122 120 114
275 299 282 303 252 154 125 283 244 186 153 99 54 339 112 147 144 152 156 160 157 163 157 169 171 178 175 167 161 165 167 165 153 152 151 142 146 155 157 157 153 153 147 147 139 137 132 128 122
316 297 281 293 294 317 113 162 28 305 43 137 8 259 147 139 152 153 160 159 165 169 169 173 177 177 182 179 174 172 169 167 161 169 168 156 159 162 171 167 166 165 164 176 153 144 143 138 130
308 268 253 257 239 217 128 173 139 17 306 199 140 29 111 142 153 157 166 169 175 179 180 180 186 188 188 194 184 181 177 179 176 187 184 186 182 183 182 177 180 180 179 177 177 168 159 150 143
229 235 249 271 305 344 154 192 160 177 215 224 161 102 129 154 167 170 178 182 186 184 189 188 187 193 193 194 201 193 190 193 194 195 187 185 182 190 193 187 189 195 196 187 184 189 176 160 114
206 242 272 275 331 344 336 169 216 258 265 251 205 170 161 174 188 190 196 194 192 190 192 193 193 193 197 202 203 203 203 198 201 204 203 173 190 194 197 202 199 196 203 197 198 196 185 162 225
251 272 270 286 2 9 305 310 280 247 244 285 322 336 167 177 193 210 208 204 195 193 197 195 198 196 197 198 206 201 204 201 200 206 203 187 198 207 210 221 211 208 211 197 210 206 193 222 206
246 256 289 246 310 324 306 286 284 279 279 293 303 284 273 195 200 211 222 217 205 201 199 198 196 200 201 196 203 206 204 203 204 201 205 201 203 208 210 208 211 202 208 196 215 211 217 223 222
160 272 254 275 247 288 267 267 274 257 249 264 247 244 247 242 239 224 217 219 213 207 205 201 199 199 203 201 200 203 207 204 204 207 207 208 211 207 204 203 210 209 208 205 214 212 219 224 224
277 281 274 266 268 244 248 259 235 258 255 255 262 267 237 233 234 250 238 219 218 215 212 208 206 201 201 203 198 204 205 205 205 207 207 212 207 211 209 207 210 212 208 212 212 213 218 221 224
225 248 261 228 230 210 178 254 270 245 230 236 242 242 243 242 222 233 241 235 221 215 212 213 208 207 206 203 202 204 203 206 207 205 210 212 212 207 211 211 209 211 212 212 212 211 215 218 220
202 238 220 260 234 217 184 266 276 275 283 277 266 246 257 270 248 252 243 234 231 218 212 211 212 212 209 206 202 204 206 208 207 207 208 212 217 209 213 212 216 210 212 214 214 215 217 219 222
208 222 257 274 252 204 233 246 244 276 284 265 270 280 269 261 258 257 241 235 236 226 214 211 214 216 211 210 208 205 208 211 209 212 206 212 218 214 209 214 214 212 212 214 216 215 216 218 222
255 231 240 241 236 287 266 267 272 277 271 272 264 263 247 253 261 266 259 231 225 228 219 212 211 217 209 209 210 207 205 204 207 214 215 212 215 216 214 212 212 210 210 214 217 216 215 217 216
249 261 271 271 287 149 282 277 270 261 259 258 262 268 267 260 255 261 260 243 220 219 219 216 212 211 211 208 212 216 212 208 210 212 218 211 214 217 217 217 213 211 210 214 216 215 216 219 214
226 230 261 296 303 322 317 290 256 250 249 248 254 254 256 255 259 262 259 263 257 220 217 217 217 213 209 209 212 216 219 219 215 217 218 218 211 215 218 218 218 213 213 211 213 213 212 209 212
237 215 243 257 295 275 314 288 289 297 282 255 244 243 241 241 240 243 246 248 250 248 226 220 216 216 216 209 206 207 207 209 218 218 218 216 219 213 216 219 220 216 214 213 215 216 215 210 207
243 226 258 248 272 282 251 271 278 262 298 278 252 226 233 240 234 232 237 251 258 243 243 232 223 218 217 213 210 212 215 219 223 217 215 217 218 218 214 217 218 217 214 216 214 211 213 213 211
191 230 192 284 38 250 211 226 246 228 248 87 13 326 303 343 244 48 3 348 335 317 278 249 231 221 218 217 214 215 216 222 221 215 213 212 213 212 215 216 215 216 216 216 216 215 216 212 214
196 146 156 214 209 237 199 193 244 300 296 277 300 299 23 17 16 35 39 14 343 321 302 276 247 238 222 217 215 218 222 221 225 222 213 213 212 212 216 215 213 215 217 218 214 213 217 214 213
189 180 181 203 190 267 200 225 246 213 250 250 252 289 22 52 64 63 43 346 313 315 317 298 281 252 237 224 221 222 225 227 227 228 222 221 217 217 219 216 217 217 219 217 215 214 217 217 215
188 211 220 332 112 174 232 285 299 281 233 247 264 261 112 90 75 76 311 274 292 309 312 315 290 274 254 242 235 227 224 227 231 233 232 225 223 222 219 219 218 219 218 218 216 215 217 215 216
218 136 167 204 203 230 256 268 246 304 232 223 252 167 92 40 26 336 311 321 321 302 306 315 311 286 268 256 247 240 228 225 230 235 238 233 229 226 222 221 220 219 218 218 216 218 219 216 218
205 179 241 168 205 196 274 249 214 226 322 132 82 76 80 8 284 284 310 310 325 326 306 309 309 304 288 269 256 249 238 231 226 232 238 240 236 233 233 226 220 218 214 216 216 219 222 222 221
218 221 202 192 178 233 3 262 295 346 67 93 90 121 176 299 321 343 330 334 327 322 322 318 312 307 308 298 270 257 249 236 230 229 234 239 241 235 240 237 227 220 215 214 215 219 223 224 224